Theta_e
352 359 365 364 363 362 362 361 360 361 361 361 362 362 361 361 361 362 361 360 360 358 355 353 350 347 345 347 350 353 353 353 354 354 354 354 353 354 355 355 352 349 350
354 359 364 363 362 362 361 361 360 360 360 360 361 361 360 361 361 360 359 359 358 355 353 350 346 342 342 344 347 350 352 354 354 353 353 352 352 353 352 350 352 349 350
355 359 361 363 363 362 361 360 359 359 359 359 360 360 360 360 360 360 359 358 355 353 351 347 342 339 338 339 340 342 344 347 350 352 351 345 345 352 351 350 349 351 352
356 358 359 362 362 362 360 359 359 358 359 359 359 359 359 359 359 358 357 355 353 350 347 343 340 339 337 336 335 337 340 341 342 341 336 342 344 349 350 350 349 347 349
355 357 358 362 362 361 360 359 359 358 358 359 360 360 359 359 358 357 356 354 350 347 344 342 341 341 340 338 338 339 342 342 343 342 336 334 332 346 350 350 349 348 346
354 357 361 362 362 361 360 359 359 359 359 359 359 359 358 357 357 356 355 353 351 347 344 343 343 342 341 339 340 340 341 341 341 333 333 335 335 344 351 351 350 350 347
352 354 360 361 361 361 359 359 359 359 359 359 359 358 357 356 356 356 354 353 351 348 345 344 344 345 344 342 341 343 343 342 337 334 332 335 336 353 354 354 351 349 347
350 355 358 361 361 360 359 359 359 358 359 359 359 358 357 356 355 354 354 352 351 350 349 346 346 346 345 343 343 345 344 343 338 334 333 331 341 352 354 354 352 349 348
350 355 357 358 359 360 359 358 359 358 358 358 358 358 357 356 355 354 353 352 351 350 350 350 348 346 345 345 344 345 344 343 336 335 335 331 340 350 352 353 350 349 348
348 353 354 355 356 355 356 359 358 358 358 357 358 358 356 356 355 353 350 351 351 350 350 350 348 347 346 345 345 345 344 343 334 334 332 330 341 349 352 354 350 351 349
345 347 352 352 352 352 354 357 358 359 359 357 357 357 354 349 348 347 347 348 351 350 350 350 349 348 347 346 346 345 344 335 335 335 332 337 342 346 352 355 353 352 350
342 344 348 351 351 350 353 355 355 354 356 354 353 353 349 345 343 345 345 349 351 351 350 350 350 349 347 337 335 340 334 334 335 335 333 341 345 346 351 356 354 354 352
343 344 346 349 350 351 351 352 354 353 352 352 353 351 346 344 343 342 337 340 338 345 339 343 343 342 338 337 336 334 331 330 333 334 335 343 346 348 352 356 355 354 353
342 343 345 345 347 348 350 351 350 350 351 350 349 347 343 340 337 336 334 332 333 334 334 333 335 336 337 337 335 333 330 329 331 332 333 343 347 351 353 357 356 354 353
341 343 343 344 343 343 346 348 349 349 349 348 348 346 342 337 334 334 332 331 331 331 331 331 330 330 331 332 333 332 330 329 330 332 331 342 348 350 354 356 354 352 352
335 342 342 342 342 342 344 344 345 347 347 347 346 346 343 338 333 329 332 332 331 331 331 331 330 329 328 330 331 333 332 332 332 331 332 333 346 349 351 354 355 354 352
329 337 338 341 342 340 341 343 342 343 343 343 343 343 343 338 333 330 330 332 334 331 332 332 332 331 328 331 332 333 334 334 333 333 333 333 336 348 349 350 353 354 354
324 328 336 342 340 339 339 343 341 340 340 339 339 340 341 340 335 331 332 333 335 333 334 334 333 332 331 330 331 331 331 332 333 334 335 334 334 337 347 350 350 352 352
318 324 330 337 338 339 339 342 343 341 340 341 340 338 339 340 339 333 332 336 337 335 335 335 331 331 327 326 328 329 329 331 332 335 334 334 335 336 336 344 348 349 350
313 318 322 327 334 337 340 342 342 341 340 340 341 341 341 341 342 341 338 334 339 335 334 332 331 330 330 329 331 333 334 335 335 335 336 338 338 336 335 336 338 342 347
313 315 320 323 327 336 337 337 336 339 339 339 341 343 345 344 343 340 342 342 338 338 337 334 331 330 330 333 330 328 330 333 332 334 337 337 337 339 337 337 336 336 338
314 316 319 319 321 325 333 335 335 335 336 337 339 339 341 343 345 345 341 340 340 339 336 334 331 330 330 332 327 328 323 325 326 331 335 336 337 338 339 339 338 337 337
314 316 319 318 318 321 325 325 324 326 330 332 334 336 338 340 340 340 343 341 340 339 337 334 332 330 328 331 332 327 322 320 320 325 330 335 335 336 337 339 338 339 338
313 313 315 317 316 317 321 319 318 323 323 326 326 328 332 337 338 339 338 340 341 342 338 335 335 333 331 327 331 335 333 324 318 316 326 333 333 331 333 336 338 338 339
313 314 315 315 314 315 315 314 315 316 319 321 322 324 328 334 338 339 336 335 337 340 338 334 333 333 333 331 330 328 329 328 326 322 322 321 327 332 335 338 337 337 337
311 311 312 312 312 314 316 316 314 314 314 314 316 319 322 327 332 336 339 339 340 339 337 335 334 333 333 333 333 329 329 326 323 324 320 320 325 330 331 334 335 335 336
Wind_Speed
8 10 15 15 16 18 20 21 20 19 17 17 19 19 20 20 18 18 17 16 15 14 13 11 9 8 9 10 10 10 10 10 11 11 11 10 8 6 11 9 8 5 8
15 13 16 15 15 17 19 20 21 19 19 19 19 19 19 18 18 17 17 16 14 14 13 11 9 8 8 9 9 8 9 9 8 8 8 8 7 7 8 9 9 6 8
15 13 13 16 14 16 17 18 19 18 19 19 20 19 19 18 18 17 16 15 15 13 13 12 10 8 7 7 7 7 6 6 6 4 5 3 2 5 6 8 9 7 7
13 12 13 17 15 15 15 17 17 17 18 18 18 18 18 17 17 17 15 15 14 13 12 11 10 9 7 6 6 5 5 4 2 1 1 1 3 5 5 7 8 7 7
12 10 11 18 16 15 15 16 16 16 16 16 17 16 15 15 15 14 14 14 14 12 11 11 11 10 7 6 5 5 4 3 2 2 2 4 4 4 7 7 8 8 7
10 11 15 17 17 15 16 15 15 16 14 15 14 15 14 14 12 12 12 12 13 13 11 10 9 9 7 5 4 4 2 1 2 1 3 5 6 7 9 9 9 8 8
7 5 13 19 19 18 16 15 14 14 15 13 14 14 14 13 11 10 11 11 12 11 10 9 9 7 6 4 2 1 1 3 2 3 4 3 5 9 10 10 10 9 9
12 8 10 15 19 19 19 17 16 15 14 14 13 13 13 12 11 10 10 10 10 11 10 10 7 6 4 3 2 1 4 7 5 5 5 4 4 8 11 9 9 9 9
9 11 13 10 13 17 18 19 18 17 17 15 14 12 12 12 11 10 9 9 8 9 9 9 7 5 3 3 3 3 4 7 3 2 5 3 7 10 12 10 10 9 9
8 8 14 14 9 10 11 17 18 18 19 18 17 15 13 12 12 11 10 9 10 9 9 8 6 5 4 3 5 6 6 8 3 2 3 4 9 12 13 11 11 10 9
8 7 10 13 10 9 10 11 15 17 17 18 17 17 13 6 7 9 9 11 11 11 10 9 7 6 5 4 6 7 7 2 3 3 2 8 8 9 14 13 11 11 10
10 8 8 11 13 8 8 10 9 11 8 7 8 10 7 8 6 8 10 13 12 12 11 9 7 6 5 3 3 5 3 4 3 3 3 9 9 10 13 13 12 12 11
11 10 10 9 12 12 8 7 6 6 7 8 10 9 7 6 6 5 3 4 4 9 4 4 4 3 4 4 3 4 4 3 3 3 5 11 10 12 11 14 12 12 12
12 12 11 11 9 6 6 7 8 9 7 7 9 7 6 5 6 5 4 5 4 4 4 3 2 4 5 5 5 6 5 4 3 3 5 12 9 7 11 13 12 12 11
10 13 15 15 11 8 8 7 7 9 9 9 8 7 4 4 6 5 5 4 4 3 4 4 4 4 4 5 5 6 6 6 6 4 4 13 9 9 12 12 11 11 13
11 14 15 17 15 14 12 13 10 8 8 8 8 9 9 6 4 4 4 6 5 5 4 4 4 4 4 5 6 7 8 6 6 6 5 5 11 11 12 12 12 12 12
7 12 14 15 16 16 14 11 9 10 8 8 9 12 13 10 8 7 5 5 7 5 5 4 3 3 3 4 7 5 5 6 6 7 6 5 5 12 12 13 12 13 13
7 10 12 12 16 16 15 11 9 8 8 7 7 7 14 15 13 9 7 8 5 4 4 4 4 4 4 4 4 5 4 5 7 8 6 4 4 4 10 16 13 14 14
10 10 8 9 15 18 15 11 12 10 8 7 5 4 7 11 11 9 8 7 5 5 5 4 3 4 3 4 5 5 5 5 6 5 7 6 6 5 5 11 14 13 13
8 6 5 6 7 9 6 4 4 5 4 4 5 7 6 8 6 7 5 5 5 4 4 3 4 4 4 4 4 4 5 5 5 5 5 5 6 7 6 7 5 6 13
6 8 10 9 8 7 5 5 3 6 5 6 8 10 7 5 5 3 7 4 5 6 6 5 4 5 4 3 1 3 4 6 6 5 4 4 5 6 6 6 4 3 4
6 9 8 8 7 3 3 3 3 4 3 3 4 3 8 10 8 3 5 5 2 4 5 4 4 2 2 4 3 2 4 6 3 3 4 5 6 4 8 6 6 6 4
9 10 10 9 9 7 6 4 3 2 2 4 3 4 5 5 7 9 3 4 3 5 5 5 5 6 4 3 4 5 0 5 4 2 4 5 5 5 4 6 6 5 6
13 6 8 9 10 8 10 7 6 4 4 1 2 2 4 7 4 6 11 4 7 8 6 5 5 5 4 4 1 5 2 1 1 5 2 5 2 6 6 3 6 5 6
10 13 10 8 6 5 6 7 6 5 4 3 4 5 4 3 7 9 15 14 11 10 14 7 7 7 4 2 4 1 2 2 3 4 8 4 4 5 4 5 6 5 6
8 7 8 9 8 8 8 7 7 7 5 3 3 3 6 6 4 7 7 7 10 13 14 10 8 6 7 5 4 3 6 4 2 4 4 4 6 4 3 5 6 4 5
Wind_Direction
181 168 159 152 142 132 125 123 122 122 119 115 112 114 116 118 123 122 123 122 121 121 123 121 118 114 111 111 112 117 120 121 122 124 120 110 90 71 104 127 107 108 106
151 159 158 151 145 134 130 128 129 130 129 126 122 122 123 126 128 128 126 124 125 131 132 131 128 126 123 122 120 124 124 122 118 114 112 112 113 106 122 126 127 118 117
149 153 155 150 148 138 132 131 131 134 132 133 133 134 134 134 132 129 128 133 137 141 140 137 135 132 123 123 125 123 108 90 84 98 109 87 116 139 144 137 125 125 125
146 151 154 151 148 143 137 134 134 134 134 135 135 136 136 134 132 136 139 140 143 147 147 143 139 135 137 133 116 101 90 87 93 116 68 231 244 168 168 148 132 131 128
148 152 161 151 148 147 143 140 137 134 135 136 138 136 132 132 138 143 147 148 150 152 154 154 147 149 150 139 121 112 105 105 52 29 297 273 241 202 193 167 143 147 146
151 156 161 154 148 148 147 146 143 138 140 139 137 131 134 140 145 151 153 154 155 159 162 163 160 157 154 145 126 109 95 69 80 315 297 286 197 212 198 182 161 162 163
143 160 163 157 151 149 152 150 148 144 141 140 137 140 144 146 152 159 162 164 163 163 168 173 174 169 158 153 133 78 6 9 54 351 340 332 169 177 202 201 175 173 172
155 154 169 165 155 155 155 155 153 148 145 145 145 148 150 152 160 170 173 178 173 170 174 182 188 182 165 186 213 340 347 343 19 348 337 339 224 194 207 203 183 184 184
155 156 165 172 161 158 159 157 159 157 154 154 153 155 158 163 166 178 182 187 189 183 185 188 188 184 197 236 276 311 328 323 -0 323 316 321 287 221 214 199 200 199 193
148 168 170 169 170 163 165 166 164 166 163 161 161 162 166 171 174 184 190 195 196 199 196 203 193 195 222 258 290 306 312 319 331 304 285 280 290 243 223 208 204 207 206
153 161 178 173 166 172 166 176 170 174 173 169 167 168 166 168 182 192 197 207 206 209 207 206 201 206 225 254 264 276 293 267 256 253 257 279 274 259 236 218 208 206 212
170 174 171 180 176 167 171 171 173 179 183 181 178 175 172 172 182 191 201 212 214 219 217 212 204 208 234 236 251 276 271 283 281 261 249 270 260 265 242 222 211 213 214
175 169 174 172 181 171 170 179 174 185 183 194 197 183 178 174 185 199 197 212 208 228 219 206 188 199 211 242 252 250 263 269 269 267 285 288 289 284 236 215 212 216 219
171 175 164 163 168 192 165 176 190 191 181 193 200 196 182 185 193 197 205 208 214 211 223 176 169 199 226 245 242 262 252 243 251 268 269 274 278 253 219 213 217 219 224
174 179 176 175 175 179 162 180 189 200 197 189 190 191 192 212 206 192 199 205 214 213 208 170 185 202 226 251 250 245 255 243 240 241 244 261 251 224 223 221 224 229 229
169 181 177 181 180 181 184 187 187 196 203 196 187 195 191 195 221 208 204 207 220 206 215 174 182 195 215 223 244 229 243 251 238 233 236 246 239 213 225 233 229 234 233
196 180 182 178 180 187 195 192 185 191 193 204 204 191 193 196 196 208 211 214 218 203 208 158 175 203 192 221 251 245 235 246 252 247 235 222 220 218 218 223 224 237 236
163 188 184 179 180 188 196 193 188 202 196 202 221 221 204 195 199 192 212 222 214 195 189 168 169 208 224 216 240 249 241 240 247 250 254 244 239 211 210 224 217 227 235
205 178 196 187 185 189 196 192 192 179 192 192 168 266 243 243 202 211 204 226 202 201 202 171 172 174 206 228 233 246 237 238 241 252 249 243 237 226 206 217 208 219 234
188 197 197 162 168 181 173 155 131 136 157 196 203 196 198 239 232 206 220 211 190 241 201 170 159 189 197 221 243 252 248 242 247 246 254 261 234 218 217 215 197 200 227
191 177 188 171 173 156 158 152 154 184 167 185 201 200 148 230 223 215 250 201 171 227 228 190 166 190 220 205 3 316 282 251 245 229 231 258 274 237 200 215 205 212 217
222 184 166 170 157 171 116 112 156 154 142 166 198 225 187 188 160 176 222 262 204 236 225 202 176 166 219 183 160 99 317 319 310 213 216 227 230 232 227 191 199 208 212
191 190 183 170 156 152 145 105 76 40 119 186 224 186 225 205 192 162 182 292 240 236 237 229 194 183 212 233 218 151 222 238 334 26 256 246 215 237 214 174 208 196 202
220 174 167 169 163 163 158 151 155 167 168 164 155 152 211 201 222 222 219 218 313 294 287 232 233 200 163 217 235 236 245 159 199 318 298 275 322 288 291 258 179 195 204
195 181 183 171 155 139 147 151 148 161 179 195 180 182 251 194 204 225 221 204 200 217 242 216 226 214 183 161 206 209 230 225 170 212 277 306 318 269 276 278 254 163 208
173 164 163 163 169 158 156 160 167 177 185 196 223 248 175 197 209 230 194 228 218 199 197 198 198 219 197 207 229 212 226 228 200 201 237 247 253 278 273 268 264 191 195